KLM6VH LIRF-EHAM

Flight info

Callsign KLM6VH
Flight time N/A
Altitude 36000
Route SOVAN DCT AMTEL DCT BIKTU DCT UNIMI DCT KPT DCT VEKIR DCT HAREM/N0441F370 DCT LOHRE DCT EBIPA/N0439F360 DCT MAPOX DCT NORKU
Aircraft B738/M-SDE2E3FGHIRWXY/LB1

Departure

Time 2026-02-20 09:41
Airport Rome–Fiumicino Leonardo da Vinci International Airport (LIRF)

Arrival

Time N/A
Airport Amsterdam Airport Schiphol (EHAM)
Time Latitude Longitude Altitude Speed Heading
2026-02-20 09:08 41.79730 12.24841 13 ft 0 kts 250°
2026-02-20 09:26 41.79732 12.24850 13 ft 2 kts 250°
2026-02-20 09:27 41.79739 12.24875 13 ft 3 kts 250°
2026-02-20 09:27 41.79746 12.24899 14 ft 3 kts 259°
2026-02-20 09:27 41.79746 12.24923 5 ft 3 kts 298°
2026-02-20 09:27 41.79734 12.24942 21 ft 3 kts 332°
2026-02-20 09:28 41.79726 12.24947 16 ft 1 kts 340°
2026-02-20 09:28 41.79740 12.24940 17 ft 3 kts 340°
2026-02-20 09:28 41.79759 12.24930 -7 ft 3 kts 340°
2026-02-20 09:28 41.79778 12.24921 23 ft 3 kts 340°
2026-02-20 09:29 41.79798 12.24912 13 ft 3 kts 340°
2026-02-20 09:29 41.79807 12.24907 13 ft 0 kts 340°
2026-02-20 09:31 41.79812 12.24905 13 ft 2 kts 340°
2026-02-20 09:31 41.79836 12.24893 13 ft 6 kts 340°
2026-02-20 09:31 41.79885 12.24869 13 ft 9 kts 340°
2026-02-20 09:32 41.79944 12.24841 13 ft 0 kts 340°
2026-02-20 09:32 41.79947 12.24840 13 ft 2 kts 340°
2026-02-20 09:32 41.79975 12.24826 13 ft 5 kts 340°
2026-02-20 09:32 41.80009 12.24810 13 ft 5 kts 341°
2026-02-20 09:33 41.80027 12.24802 13 ft 0 kts 341°
2026-02-20 09:33 41.80031 12.24800 13 ft 1 kts 341°
2026-02-20 09:34 41.80048 12.24792 13 ft 2 kts 341°
2026-02-20 09:34 41.80061 12.24786 15 ft 2 kts 341°
2026-02-20 09:34 41.80092 12.24772 13 ft 7 kts 341°
2026-02-20 09:34 41.80139 12.24750 13 ft 0 kts 341°
2026-02-20 09:35 41.80143 12.24748 13 ft 4 kts 341°
2026-02-20 09:35 41.80164 12.24739 14 ft 1 kts 342°
2026-02-20 09:36 41.80123 12.25278 13 ft 0 kts 69°
2026-02-20 09:36 41.80127 12.25295 13 ft 2 kts 72°
2026-02-20 09:36 41.80144 12.25361 14 ft 381 kts 71°
2026-02-20 09:36 41.80579 12.26944 12 ft 0 kts 71°
2026-02-20 09:37 41.80581 12.26953 12 ft 3 kts 69°
2026-02-20 09:37 41.80613 12.27029 12 ft 15 kts 38°
2026-02-20 09:37 41.80726 12.27053 12 ft 19 kts
2026-02-20 09:37 41.80786 12.27050 12 ft 0 kts 347°
2026-02-20 09:38 41.80787 12.27050 12 ft 1 kts 346°
2026-02-20 09:38 41.80814 12.27040 13 ft 8 kts 346°
2026-02-20 09:39 41.80886 12.27004 12 ft 0 kts 339°
2026-02-20 09:39 41.80898 12.26998 13 ft 4 kts 339°
2026-02-20 09:39 41.80927 12.26983 12 ft 4 kts 335°
2026-02-20 09:39 41.80950 12.26949 11 ft 6 kts 295°
2026-02-20 09:40 41.80947 12.26893 13 ft 0 kts 252°
2026-02-20 09:40 41.80927 12.26815 13 ft 29 kts 250°
2026-02-20 09:41 41.80771 12.26255 19 ft 98 kts 249°
2026-02-20 09:41 41.80463 12.25126 16 ft 157 kts 251°
2026-02-20 09:41 41.80065 12.23624 413 ft 172 kts 251°
2026-02-20 09:41 41.79635 12.22138 1170 ft 175 kts 249°
2026-02-20 09:42 41.79187 12.20607 1881 ft 179 kts 257°
2026-02-20 09:42 41.79152 12.19481 2070 ft 194 kts 288°
2026-02-20 09:42 41.79862 12.17943 2613 ft 195 kts 312°
2026-02-20 09:43 41.81533 12.15093 3858 ft 196 kts 310°
2026-02-20 09:43 41.82379 12.13654 4501 ft 196 kts 310°
2026-02-20 09:43 41.83225 12.12216 5106 ft 198 kts 310°
2026-02-20 09:43 41.84107 12.10780 5658 ft 201 kts 320°
2026-02-20 09:44 41.85372 12.09929 5960 ft 215 kts 346°
2026-02-20 09:44 41.86878 12.09403 6266 ft 231 kts 345°
2026-02-20 09:44 41.88489 12.08814 6551 ft 251 kts 345°
2026-02-20 09:44 41.90193 12.08183 7211 ft 256 kts 345°
2026-02-20 09:45 41.91915 12.07543 8015 ft 257 kts 345°
2026-02-20 09:45 41.93640 12.06900 8817 ft 258 kts 344°
2026-02-20 09:45 41.95380 12.06253 9608 ft 260 kts 345°
2026-02-20 09:45 41.97176 12.05847 10225 ft 268 kts 354°
2026-02-20 09:46 41.99120 12.05684 10402 ft 291 kts 356°
2026-02-20 09:46 42.01219 12.05538 10579 ft 312 kts 356°
2026-02-20 09:46 42.03440 12.05355 10955 ft 325 kts 355°
2026-02-20 09:46 42.05713 12.05145 11569 ft 330 kts 355°
2026-02-20 09:47 42.08010 12.04923 12287 ft 332 kts 354°
2026-02-20 09:47 42.10326 12.04697 13006 ft 335 kts 354°
2026-02-20 09:47 42.12665 12.04468 13708 ft 340 kts 354°
2026-02-20 09:47 42.15031 12.04236 14349 ft 344 kts 354°
2026-02-20 09:48 42.17430 12.04001 15059 ft 346 kts 354°
2026-02-20 09:48 42.19836 12.03680 15712 ft 349 kts 350°
2026-02-20 09:48 42.22254 12.03174 16341 ft 354 kts 348°
2026-02-20 09:48 42.24699 12.02600 16972 ft 358 kts 348°
2026-02-20 09:49 42.27167 12.02009 17618 ft 362 kts 348°
2026-02-20 09:49 42.29664 12.01418 18228 ft 367 kts 348°
2026-02-20 09:49 42.32193 12.00830 18764 ft 371 kts 348°
2026-02-20 09:49 42.34749 12.00244 19320 ft 375 kts 348°
2026-02-20 09:50 42.37330 11.99657 19862 ft 378 kts 348°
2026-02-20 09:50 42.39940 11.99067 20412 ft 382 kts 349°
2026-02-20 09:50 42.42565 11.98476 21023 ft 383 kts 349°
2026-02-20 09:50 42.45208 11.97881 21543 ft 387 kts 349°
2026-02-20 09:51 42.47850 11.97286 22019 ft 391 kts 349°
2026-02-20 09:51 42.50548 11.96677 22519 ft 395 kts 349°
2026-02-20 09:51 42.53270 11.96062 23024 ft 398 kts 349°
2026-02-20 09:51 42.56014 11.95443 23496 ft 402 kts 349°
2026-02-20 09:52 42.58780 11.94817 23935 ft 404 kts 349°
2026-02-20 09:52 42.61552 11.94190 24464 ft 403 kts 349°
2026-02-20 09:52 42.64308 11.93566 25035 ft 401 kts 349°
2026-02-20 09:52 42.67077 11.92938 25436 ft 404 kts 349°
2026-02-20 09:53 42.69859 11.92306 25791 ft 407 kts 349°
2026-02-20 09:53 42.72664 11.91668 26198 ft 409 kts 349°
2026-02-20 09:53 42.75473 11.91029 26637 ft 410 kts 349°
2026-02-20 09:53 42.78298 11.90387 27024 ft 412 kts 349°
2026-02-20 09:54 42.81133 11.89731 27405 ft 414 kts 348°
2026-02-20 09:54 42.83877 11.88723 27779 ft 415 kts 340°
2026-02-20 09:54 42.86556 11.87108 28145 ft 417 kts 332°
2026-02-20 09:54 42.89075 11.85239 28484 ft 419 kts 332°
2026-02-20 09:55 42.91636 11.83323 28793 ft 421 kts 332°
2026-02-20 09:55 42.94210 11.81404 29130 ft 423 kts 332°
2026-02-20 09:55 42.96793 11.79489 29597 ft 421 kts 332°
2026-02-20 09:55 42.99360 11.77595 30125 ft 418 kts 332°
2026-02-20 09:56 43.01911 11.75718 30497 ft 416 kts 333°
2026-02-20 09:56 43.04472 11.73835 30714 ft 420 kts 333°
2026-02-20 09:56 43.07062 11.71931 30882 ft 423 kts 333°
2026-02-20 09:56 43.09650 11.70025 31235 ft 422 kts 333°
2026-02-20 09:57 43.12224 11.68127 31682 ft 418 kts 333°
2026-02-20 09:57 43.14770 11.66248 32198 ft 412 kts 333°
2026-02-20 09:57 43.17274 11.64398 32736 ft 407 kts 333°
2026-02-20 09:57 43.19798 11.62633 33002 ft 408 kts 338°
2026-02-20 09:58 43.22486 11.61364 33191 ft 410 kts 345°
2026-02-20 09:58 43.25275 11.60556 33482 ft 410 kts 353°
2026-02-20 09:58 43.28114 11.60248 33825 ft 409 kts 355°
2026-02-20 09:58 43.30947 11.60018 34106 ft 408 kts 355°
2026-02-20 09:59 43.33782 11.59797 34320 ft 409 kts 355°
2026-02-20 09:59 43.36628 11.59570 34514 ft 410 kts 355°
2026-02-20 09:59 43.39473 11.59334 34768 ft 409 kts 355°
2026-02-20 09:59 43.42314 11.59092 35011 ft 409 kts 355°
2026-02-20 10:00 43.45154 11.58844 35186 ft 410 kts 355°
2026-02-20 10:00 43.48011 11.58591 35312 ft 413 kts 355°
2026-02-20 10:00 43.50875 11.58335 35523 ft 413 kts 355°
2026-02-20 10:00 43.53743 11.58080 35780 ft 411 kts 355°
2026-02-20 10:01 43.56603 11.57824 35897 ft 414 kts 355°
2026-02-20 10:01 43.62371 11.57307 35896 ft 415 kts 355°
2026-02-20 10:02 43.68095 11.56795 35899 ft 411 kts 355°
2026-02-20 10:02 43.73777 11.56289 35912 ft 407 kts 355°
2026-02-20 10:03 43.79394 11.55782 35903 ft 406 kts 355°